Location: Asheville, NC
(35.6000°N, 82.5500°W)
Time: 06:21:17
(UTC-05:00)

KAITUO 1B - Visible Passes

Search period start: 20 January 2018 00:00
Search period end: 30 January 2018 00:00
Orbit: 500 x 521 km, 97.5° (Epoch: 19 January)

Date Brightness Start Highest point End Pass type
(mag) Time Alt. Az. Time Alt. Az. Time Alt. Az.
20 Jan ? 06:51:29 10° N 06:55:11 82° WNW 06:58:50 10° SSW visible
20 Jan ? 19:03:07 10° SW 19:05:27 16° W 19:07:48 10° NW visible
21 Jan ? 06:35:11 10° NNE 06:38:48 57° E 06:42:25 10° S visible
21 Jan ? 18:45:52 10° SSW 18:49:00 25° W 18:52:10 10° NW visible
22 Jan ? 06:19:04 10° NNE 06:22:25 33° E 06:25:45 10° SSE visible
22 Jan ? 18:29:02 10° S 18:32:36 41° W 18:36:10 10° NNW visible
23 Jan ? 06:03:12 10° NE 06:05:59 20° E 06:08:45 10° SE visible
23 Jan ? 18:12:29 10° S 18:16:13 72° W 18:19:57 10° NNW visible
24 Jan ? 05:47:53 10° ENE 05:49:30 12° E 05:51:08 10° ESE visible
25 Jan ? 07:03:39 10° N 07:07:14 54° WNW 07:10:48 10° SSW visible
25 Jan ? 19:16:39 10° WSW 19:17:39 11° W 19:18:38 10° WNW visible
26 Jan ? 06:47:13 10° NNE 06:50:53 87° E 06:54:33 10° SSW visible
26 Jan ? 18:58:35 10° SW 19:01:10 18° W 19:03:45 10° NW visible
27 Jan ? 06:30:57 10° NNE 06:34:31 49° E 06:38:04 10° S visible
27 Jan ? 18:41:27 10° SSW 18:44:43 28° W 18:47:59 10° NW visible
28 Jan ? 06:14:52 10° NE 06:18:06 29° E 06:21:19 10° SSE visible
28 Jan ? 18:24:41 10° S 18:28:17 47° W 18:31:55 10° NNW visible
29 Jan ? 05:59:05 10° NE 06:01:39 18° E 06:04:12 10° SE visible
